Radiation Dose at Monitoring Post of Fukushima Daini Nuclear Power Station
Date,Time,MP-1(microSv/h),MP-2(microSv/h),MP-3(microSv/h),MP-4(microSv/h),MP-5(microSv/h),MP-6(microSv/h),MP-7(microSv/h),Wind Direction,Wind Velocity(m/s),Rain
2020/06/17,00:00,0.177,0.159,0.260,0.250,0.251,0.139,0.084,northwest,6.2,No
2020/06/17,00:10,0.176,0.161,0.264,0.253,0.247,0.139,0.085,northwest,7.2,No
2020/06/17,00:20,0.176,0.161,0.261,0.249,0.249,0.139,0.084,northwest,6.3,No
2020/06/17,00:30,0.175,0.162,0.264,0.253,0.248,0.138,0.085,northwest,5.6,No
2020/06/17,00:40,0.177,0.161,0.262,0.250,0.248,0.139,0.084,northwest,3.6,No
2020/06/17,00:50,0.176,0.161,0.265,0.251,0.249,0.140,0.085,north-northwest,4.3,No
2020/06/17,01:00,0.177,0.161,0.262,0.251,0.247,0.139,0.085,north-northwest,6.1,No
2020/06/17,01:10,0.177,0.161,0.263,0.252,0.250,0.139,0.084,northwest,6.3,No
2020/06/17,01:20,0.176,0.162,0.261,0.251,0.248,0.139,0.084,northwest,8.1,No
2020/06/17,01:30,0.177,0.161,0.264,0.252,0.249,0.139,0.084,northwest,10.9,No
2020/06/17,01:40,0.174,0.162,0.263,0.251,0.247,0.139,0.084,northwest,9.0,No
2020/06/17,01:50,0.179,0.161,0.263,0.251,0.249,0.138,0.084,west-northwest,7.9,No
2020/06/17,02:00,0.176,0.161,0.262,0.250,0.248,0.138,0.085,west-northwest,9.2,No
2020/06/17,02:10,0.176,0.161,0.263,0.252,0.248,0.139,0.084,west-northwest,10.1,No
2020/06/17,02:20,0.176,0.161,0.264,0.252,0.248,0.139,0.084,northwest,8.1,No
2020/06/17,02:30,0.176,0.161,0.262,0.251,0.247,0.139,0.084,northwest,6.6,No
2020/06/17,02:40,0.177,0.162,0.263,0.251,0.250,0.139,0.085,north-northwest,7.3,No
2020/06/17,02:50,0.177,0.160,0.262,0.252,0.247,0.138,0.084,northwest,6.9,No
2020/06/17,03:00,0.178,0.161,0.265,0.251,0.250,0.139,0.085,northwest,7.0,No
2020/06/17,03:10,0.176,0.161,0.262,0.251,0.247,0.139,0.084,northwest,6.7,No
2020/06/17,03:20,0.177,0.162,0.265,0.251,0.249,0.139,0.084,northwest,6.6,No
2020/06/17,03:30,0.176,0.162,0.263,0.251,0.248,0.138,0.084,northwest,7.3,No
2020/06/17,03:40,0.177,0.162,0.264,0.251,0.251,0.139,0.084,west-northwest,9.2,No
2020/06/17,03:50,0.177,0.161,0.262,0.250,0.248,0.138,0.084,northwest,8.4,No
2020/06/17,04:00,0.177,0.162,0.264,0.252,0.250,0.139,0.085,northwest,7.1,No
2020/06/17,04:10,0.176,0.161,0.263,0.251,0.248,0.139,0.084,northwest,7.2,No
2020/06/17,04:20,0.176,0.162,0.264,0.252,0.249,0.139,0.084,northwest,7.9,No
2020/06/17,04:30,0.177,0.161,0.261,0.250,0.248,0.139,0.084,west-northwest,5.5,No
2020/06/17,04:40,0.177,0.161,0.264,0.252,0.248,0.139,0.084,west,7.1,No
2020/06/17,04:50,0.178,0.162,0.262,0.249,0.247,0.139,0.083,west-northwest,5.4,No
2020/06/17,05:00,0.176,0.162,0.264,0.252,0.248,0.139,0.085,west-northwest,8.3,No
2020/06/17,05:10,0.179,0.161,0.262,0.250,0.248,0.138,0.083,west-northwest,8.6,No
2020/06/17,05:20,0.176,0.162,0.263,0.252,0.247,0.139,0.085,west-northwest,7.2,No
2020/06/17,05:30,0.176,0.160,0.261,0.249,0.249,0.139,0.084,west-northwest,6.9,No
2020/06/17,05:40,0.177,0.160,0.264,0.251,0.247,0.138,0.084,west-northwest,4.4,No
2020/06/17,05:50,0.176,0.162,0.262,0.250,0.245,0.139,0.084,west-northwest,2.3,No
2020/06/17,06:00,0.177,0.161,0.263,0.252,0.247,0.140,0.085,northwest,1.0,No
2020/06/17,06:10,0.176,0.159,0.264,0.250,0.247,0.138,0.084,north-northeast,1.1,No
2020/06/17,06:20,0.178,0.160,0.263,0.250,0.245,0.140,0.083,north-northeast,1.0,No
2020/06/17,06:30,0.177,0.162,0.264,0.251,0.247,0.139,0.083,north-northwest,0.8,No
2020/06/17,06:40,0.177,0.160,0.262,0.249,0.249,0.138,0.084,north,1.0,No
2020/06/17,06:50,0.176,0.159,0.265,0.252,0.246,0.140,0.084,north,0.8,No
2020/06/17,07:00,0.178,0.160,0.261,0.252,0.248,0.139,0.085,north-northwest,0.6,No
2020/06/17,07:10,0.176,0.159,0.259,0.249,0.250,0.140,0.084,north-northeast,1.6,No
2020/06/17,07:20,0.175,0.160,0.260,0.249,0.246,0.139,0.084,north-northeast,3.1,No
2020/06/17,07:30,0.178,0.158,0.259,0.252,0.247,0.139,0.083,north,1.7,No
2020/06/17,07:40,0.177,0.159,0.260,0.251,0.250,0.139,0.084,north-northeast,1.5,No
2020/06/17,07:50,0.175,0.160,0.259,0.249,0.249,0.139,0.083,north-northeast,2.2,No
2020/06/17,08:00,0.177,0.160,0.260,0.248,0.247,0.139,0.083,north-northeast,3.1,No
2020/06/17,08:10,0.177,0.162,0.260,0.248,0.245,0.139,0.084,north-northeast,3.8,No
2020/06/17,08:20,0.176,0.162,0.260,0.248,0.249,0.138,0.084,northeast,3.3,No
2020/06/17,08:30,0.178,0.161,0.260,0.248,0.249,0.139,0.083,east-northeast,3.6,No
2020/06/17,08:40,0.176,0.160,0.263,0.249,0.246,0.139,0.084,north-northeast,2.9,No
2020/06/17,08:50,0.177,0.160,0.261,0.248,0.246,0.140,0.085,north-northeast,2.2,No
2020/06/17,09:00,0.176,0.160,0.261,0.249,0.246,0.139,0.084,east-northeast,2.6,No
2020/06/17,09:10,0.177,0.160,0.263,0.249,0.246,0.139,0.084,northeast,3.5,No
2020/06/17,09:20,0.177,0.161,0.263,0.249,0.245,0.138,0.085,northeast,4.3,No
2020/06/17,09:30,0.175,0.160,0.262,0.249,0.248,0.139,0.084,northeast,3.7,No
2020/06/17,09:40,0.175,0.162,0.261,0.249,0.250,0.138,0.085,northeast,4.3,No
2020/06/17,09:50,0.175,0.162,0.261,0.250,0.249,0.139,0.084,east-northeast,6.4,No
2020/06/17,10:00,0.175,0.162,0.262,0.250,0.248,0.139,0.084,east-northeast,3.1,No
2020/06/17,10:10,0.175,0.161,0.262,0.251,0.247,0.139,0.084,east,5.8,No
2020/06/17,10:20,0.177,0.161,0.261,0.249,0.247,0.140,0.085,east,5.5,No
2020/06/17,10:30,0.177,0.159,0.261,0.250,0.246,0.139,0.084,east-southeast,4.7,No
2020/06/17,10:40,0.176,0.161,0.261,0.249,0.248,0.139,0.085,east-southeast,4.4,No
2020/06/17,10:50,0.175,0.162,0.263,0.252,0.252,0.140,0.084,east-southeast,3.0,No
2020/06/17,11:00,0.176,0.162,0.264,0.254,0.250,0.139,0.084,east,2.9,No
2020/06/17,11:10,0.174,0.161,0.263,0.253,0.247,0.140,0.084,east-southeast,3.0,No
2020/06/17,11:20,0.176,0.161,0.263,0.252,0.247,0.140,0.084,east-southeast,2.9,No
2020/06/17,11:30,0.176,0.161,0.263,0.250,0.246,0.140,0.084,east-southeast,3.9,No
2020/06/17,11:40,0.175,0.161,0.265,0.250,0.245,0.139,0.085,southeast,2.7,No
2020/06/17,11:50,0.176,0.162,0.268,0.251,0.248,0.138,0.085,southeast,2.8,No
2020/06/17,12:00,0.176,0.163,0.267,0.251,0.250,0.138,0.085,east-southeast,2.9,No
2020/06/17,12:10,0.175,0.162,0.266,0.254,0.249,0.139,0.085,southeast,2.4,No
2020/06/17,12:20,0.178,0.161,0.263,0.253,0.248,0.140,0.085,southeast,3.1,No
2020/06/17,12:30,0.178,0.161,0.263,0.252,0.247,0.141,0.083,southeast,3.3,No
2020/06/17,12:40,0.177,0.161,0.263,0.252,0.246,0.139,0.084,south-southeast,4.2,No
2020/06/17,12:50,0.176,0.163,0.266,0.252,0.246,0.139,0.084,southeast,3.8,No
2020/06/17,13:00,0.176,0.163,0.266,0.251,0.246,0.140,0.085,southeast,3.7,No
2020/06/17,13:10,0.176,0.162,0.266,0.250,0.246,0.139,0.085,south-southeast,4.1,No
2020/06/17,13:20,0.176,0.161,0.264,0.252,0.247,0.139,0.084,south-southeast,4.3,No
2020/06/17,13:30,0.176,0.160,0.264,0.255,0.246,0.140,0.084,south-southeast,3.8,No
2020/06/17,13:40,0.178,0.161,0.263,0.255,0.251,0.140,0.083,south-southeast,3.2,No
2020/06/17,13:50,0.179,0.163,0.262,0.255,0.251,0.139,0.085,south-southeast,3.3,No
2020/06/17,14:00,0.179,0.162,0.264,0.252,0.250,0.138,0.084,south-southeast,2.3,No
2020/06/17,14:10,0.177,0.162,0.264,0.252,0.248,0.141,0.084,south-southeast,2.2,No
2020/06/17,14:20,0.176,0.161,0.263,0.250,0.248,0.140,0.084,south-southeast,2.8,No
2020/06/17,14:30,0.177,0.160,0.264,0.251,0.248,0.141,0.084,south-southeast,3.3,No
2020/06/17,14:40,0.176,0.161,0.264,0.250,0.246,0.140,0.085,southeast,3.6,No
2020/06/17,14:50,0.175,0.161,0.264,0.252,0.247,0.139,0.084,southeast,2.9,No
2020/06/17,15:00,0.176,0.161,0.267,0.254,0.248,0.138,0.085,south-southeast,3.2,No
2020/06/17,15:10,0.179,0.162,0.267,0.255,0.246,0.139,0.085,south-southeast,2.4,No
2020/06/17,15:20,0.179,0.163,0.264,0.254,0.247,0.140,0.085,south-southeast,3.0,No
2020/06/17,15:30,0.177,0.162,0.262,0.252,0.249,0.141,0.084,south-southeast,2.7,No
2020/06/17,15:40,0.177,0.161,0.266,0.252,0.251,0.141,0.085,south-southeast,3.2,No
2020/06/17,15:50,0.179,0.163,0.267,0.255,0.250,0.140,0.085,south,3.0,No
2020/06/17,16:00,0.179,0.163,0.265,0.254,0.248,0.139,0.084,south-southeast,3.1,No
2020/06/17,16:10,0.176,0.162,0.264,0.253,0.247,0.140,0.085,south-southeast,4.0,No
2020/06/17,16:20,0.176,0.162,0.266,0.254,0.251,0.139,0.085,south-southeast,3.4,No
2020/06/17,16:30,0.178,0.163,0.266,0.255,0.251,0.139,0.084,south-southeast,4.5,No
2020/06/17,16:40,0.179,0.162,0.264,0.252,0.248,0.140,0.086,south-southeast,3.5,No
2020/06/17,16:50,0.177,0.162,0.267,0.255,0.248,0.140,0.085,south-southeast,3.8,No
2020/06/17,17:00,0.177,0.163,0.267,0.256,0.252,0.139,0.084,south,3.5,No
2020/06/17,17:10,0.179,0.161,0.265,0.252,0.250,0.141,0.086,south-southeast,3.8,No
2020/06/17,17:20,0.176,0.162,0.268,0.255,0.248,0.141,0.085,south-southeast,4.2,No
2020/06/17,17:30,0.178,0.162,0.265,0.255,0.248,0.139,0.085,south-southeast,3.3,No
2020/06/17,17:40,0.178,0.162,0.265,0.254,0.251,0.140,0.085,south-southeast,3.4,No
2020/06/17,17:50,0.177,0.164,0.269,0.255,0.248,0.140,0.085,south,4.9,No
2020/06/17,18:00,0.177,0.161,0.265,0.254,0.248,0.139,0.084,south-southeast,5.5,No
2020/06/17,18:10,0.178,0.162,0.266,0.256,0.251,0.140,0.085,south-southeast,4.7,No
2020/06/17,18:20,0.176,0.163,0.267,0.255,0.248,0.140,0.085,south-southeast,3.8,No
2020/06/17,18:30,0.178,0.161,0.265,0.254,0.249,0.139,0.085,south-southeast,5.6,No
2020/06/17,18:40,0.179,0.163,0.267,0.256,0.251,0.140,0.085,south-southeast,6.1,No
2020/06/17,18:50,0.177,0.162,0.266,0.254,0.249,0.140,0.086,south,5.9,No
2020/06/17,19:00,0.178,0.162,0.268,0.256,0.251,0.140,0.084,south,4.9,No
2020/06/17,19:10,0.178,0.162,0.267,0.253,0.249,0.140,0.085,south,3.7,No
2020/06/17,19:20,0.178,0.162,0.267,0.255,0.251,0.141,0.085,south,3.6,No
2020/06/17,19:30,0.179,0.162,0.267,0.254,0.249,0.140,0.085,south,2.8,No
2020/06/17,19:40,0.177,0.163,0.266,0.256,0.251,0.139,0.085,south-southeast,3.1,No
2020/06/17,19:50,0.178,0.163,0.268,0.255,0.250,0.140,0.085,south-southeast,3.6,No
2020/06/17,20:00,0.178,0.163,0.266,0.256,0.249,0.139,0.086,south-southeast,4.1,No
2020/06/17,20:10,0.178,0.162,0.268,0.255,0.250,0.140,0.084,south,2.9,No
2020/06/17,20:20,0.179,0.163,0.266,0.255,0.248,0.140,0.086,south-southeast,4.2,No
2020/06/17,20:30,0.177,0.162,0.267,0.254,0.251,0.140,0.085,south-southeast,4.4,No
2020/06/17,20:40,0.178,0.163,0.266,0.255,0.249,0.139,0.085,south,4.1,No
2020/06/17,20:50,0.177,0.163,0.269,0.254,0.250,0.141,0.086,south,4.3,No
2020/06/17,21:00,0.179,0.163,0.267,0.256,0.249,0.140,0.086,south,4.1,No
2020/06/17,21:10,0.178,0.162,0.269,0.254,0.252,0.140,0.085,south,4.1,No
2020/06/17,21:20,0.178,0.163,0.266,0.256,0.249,0.140,0.085,south,4.0,No
2020/06/17,21:30,0.177,0.163,0.269,0.255,0.250,0.141,0.085,south,4.2,No
2020/06/17,21:40,0.179,0.163,0.267,0.257,0.249,0.140,0.085,south,3.5,No
2020/06/17,21:50,0.178,0.163,0.268,0.255,0.251,0.140,0.085,south-southeast,4.0,No
2020/06/17,22:00,0.179,0.163,0.266,0.256,0.248,0.140,0.085,south-southeast,3.2,No
2020/06/17,22:10,0.178,0.163,0.268,0.254,0.252,0.140,0.085,south-southeast,3.3,No
2020/06/17,22:20,0.178,0.163,0.267,0.256,0.249,0.139,0.085,south-southeast,3.3,No
2020/06/17,22:30,0.178,0.163,0.267,0.255,0.250,0.139,0.085,south,3.4,No
2020/06/17,22:40,0.179,0.163,0.269,0.255,0.250,0.140,0.085,south-southeast,3.8,No
2020/06/17,22:50,0.178,0.163,0.266,0.255,0.251,0.140,0.084,south,4.3,No
2020/06/17,23:00,0.179,0.163,0.269,0.256,0.248,0.141,0.086,south,4.7,No
2020/06/17,23:10,0.177,0.163,0.266,0.255,0.251,0.141,0.085,south,4.3,No
2020/06/17,23:20,0.179,0.163,0.268,0.255,0.249,0.140,0.085,south,3.8,No
2020/06/17,23:30,0.178,0.162,0.267,0.254,0.251,0.140,0.085,south,4.8,No
2020/06/17,23:40,0.179,0.163,0.267,0.256,0.250,0.140,0.086,south,4.6,No
2020/06/17,23:50,0.177,0.163,0.266,0.256,0.250,0.140,0.085,south,4.6,No
